FREGAT DEB (TANK), 41108

Orbit data source: Space-Track

FREGAT DEB (TANK), 41108 is space debris in LEO originally from a launch on Fri, 11 Dec 2015 UTC launched from the Tyuratam Missile And Space Complex (TTMTR). Debris objects in space refer to the collection of defunct objects orbiting the Earth. Examples of debris include non-operational satellites, rocket bodies, and fragments generated from explosions, collisions, or faulty payload assembly.

Loading next visibility...
Identifier
41108, 2015-074D
Orbit
LEO
Country
Flag of CISCIS
Related business
Manufacturer
Lavochkin
Mission
Spacecraft
Bus & Motor
FREGAT SBB, Unknown motor
Mass
360 kg wet, 360 kg dry
Launch date (UTC)
2015-12-11 (10 years ago)
Launch vehicle
Unknown
Launch site
Tyuratam Missile And Space Complex (TTMTR)
Object type
Payload
Rocket body
Debris
Shape & HBR
Torus, 1.9 m
Radar Cross Section
6.703 m², Large (>1 m²)

Expand to show TLE details & history
Last TLE update: 17 hours ago

TLE from 17 hours ago
0 FREGAT DEB (TANK)
1 41108U 15074D   25299.18393129  .00064544  58242-5  88705-3 0  9994
2 41108  50.3151 251.2086 1210875 291.0100  56.5549 13.24061432418511
Epoch: 2025-10-26T04:24Z
TLE epoch observation values (Epoch: 2025-10-26T04:24:51.663Z)
Latitude
-0.00005°
Longitude
150.18952°
Altitude
750.988 km
Speed
7.685 km/s
True Right ascension
16h 44m 50s
True Declination
0° 00' 00"
Sunlit
Object was in daylight at epoch
Visualization orbit readout
Latitude
Unknown
Longitude
Unknown
Altitude
Unknown
Speed
Unknown
Apparent Right ascension
Unknown
Apparent Declination
Unknown
Sunlit
N/A
Visualization observer readout
Local Sidereal Time
16:29:09
Azimuth
Unknown
Elevation
Unknown
Doppler factor
Unknown
Orbital elements
Apogee altitude
2,083.892 km
Perigee altitude
255.942 km
Semi-major axis
7,548.054 km
Eccentricity
0.12109
Inclination
50.3151°
RAAN
251.2086°
Arg. of periapsis
291.01°
True anomaly
69.08089°
Mean anomaly
56.5549°
Eccentric anomaly
62.72112°
Mean motion
3.30972 °/min
Orbital period
108.77 mins
BSTAR
0.00088705
Loading maneuver chart data...
Computing Atmospheric mass density...
Loading historical data...
Loading historical data...
Loading historical data...
Loading historical data...
Loading historical data...
Loading historical data...
Loading historical data...

Documentation

Showing up to 5 results
|